Tracking 35048 objects as of 19-Aug-2026
HD Live streaming from Space Station
objects crossing your sky now

STARLINK-2713

Track STARLINK-2713 now!
10-day predictions
STARLINK-2713 is classified as:


NORAD ID: 48602
Int'l Code: 2021-041BB
Launch date: May 15, 2021
Source: United States (US)
Launch site: AIR FORCE EASTERN TEST RANGE (AFETR)
Your satellite tracking list
Your tracking list is empty




NASA's NSSDC Master Catalog

Two Line Element Set (TLE):
1 48602U 21041BB  26231.27909151  .00003184  00000-0  11430-3 0  9994
2 48602  53.1587  77.2248 0001154  92.3871 267.7262 15.31707755291625
Source of the keplerian elements: AFSPC